CAPE
0 0 0 0 0 0 0 0 0 0 0 0 0 0 0 0 0 0 0 0 0 0 0 0 0 0 0 0 0 0 0 0 0 270 611 574 500 601 634 570 512 430 347 405
0 0 0 0 0 0 0 0 0 0 0 0 0 0 0 0 0 0 0 0 0 0 0 0 0 0 0 0 0 0 0 0 0 0 66 684 273 341 393 531 505 430 396 333
0 0 0 0 0 0 0 0 0 0 0 0 0 0 0 0 0 0 0 0 0 0 0 0 0 0 0 0 0 0 0 0 0 0 0 57 572 355 334 468 543 412 402 314
0 0 0 0 0 0 0 0 0 0 0 0 0 0 0 0 0 0 0 0 0 0 0 0 0 0 0 0 0 0 0 0 0 0 0 0 93 379 13 197 349 632 538 452
0 0 0 0 0 0 0 0 0 0 0 0 0 0 0 0 0 0 0 0 0 0 0 0 0 0 0 0 0 0 0 0 0 0 0 0 0 55 133 234 287 278 470 601
0 0 0 0 0 0 0 0 0 0 0 0 0 0 0 0 0 0 0 0 0 0 0 0 0 0 0 0 0 0 0 0 0 0 0 0 0 0 10 2 45 57 130 467
0 0 0 0 0 0 0 0 0 0 0 0 0 0 0 5 0 0 0 0 0 0 0 0 0 0 0 0 0 0 0 0 0 0 0 0 0 0 1 11 0 28 86 290
0 0 0 0 0 0 0 0 0 0 0 0 0 0 0 0 0 0 0 0 0 0 0 0 0 0 0 0 0 0 0 0 0 0 0 0 0 0 0 53 97 70 59 90
0 0 0 0 0 0 0 0 0 0 0 0 0 0 0 0 0 0 0 0 0 0 0 0 0 0 0 0 0 0 0 0 0 0 0 0 0 0 0 58 395 447 251 88
0 0 0 0 0 0 0 0 0 0 0 0 0 0 0 0 0 0 0 0 0 0 0 0 0 0 0 0 0 0 0 3 1 0 0 0 0 0 0 169 498 632 448 392
0 0 0 0 0 0 0 0 0 0 0 5 0 0 0 0 0 0 0 0 0 0 0 0 0 0 0 0 0 0 0 1 2 0 0 0 0 0 0 351 570 604 400 286
0 0 0 0 0 0 0 0 0 0 0 0 0 0 0 0 0 0 0 0 0 0 0 0 0 0 0 1 0 2 2 3 2 1 0 0 0 0 0 626 780 679 240 178
0 0 0 0 0 0 0 0 0 0 0 1 1 0 0 0 0 0 0 0 0 0 0 0 0 1 0 0 1 3 3 2 1 2 2 0 0 0 27 550 825 577 336 294
0 0 0 0 0 0 0 0 0 0 10 0 0 0 0 0 0 0 0 0 0 0 0 0 0 1 0 0 3 3 1 3 3 3 1 19 88 144 262 587 688 215 197 151
0 0 0 0 0 0 0 0 0 7 9 4 0 0 0 0 0 0 0 0 0 0 0 0 1 2 1 1 1 3 3 3 3 2 1 52 253 260 545 608 323 198 136 2
0 0 0 0 0 0 0 0 6 1 0 3 0 0 0 0 0 0 0 0 0 0 0 0 2 4 4 3 3 4 3 3 3 3 1 31 95 183 337 326 162 0 0 5
0 0 0 0 0 0 5 0 0 0 0 0 0 0 0 0 0 0 0 0 0 0 0 2 2 4 5 3 3 3 3 3 3 2 1 2 2 7 18 15 1 3 5 5
0 0 0 0 0 0 0 0 0 4 0 0 0 0 0 0 0 0 0 1 0 0 0 1 3 1 3 2 3 2 2 3 2 1 2 3 2 5 5 5 6 6 5 6
0 0 0 1 1 0 0 8 0 0 0 0 0 0 0 0 0 0 0 0 0 0 0 1 1 3 1 2 3 2 2 2 1 1 1 4 3 5 6 7 6 4 4 5
0 0 0 0 10 0 0 0 0 0 0 0 0 0 0 0 0 0 0 0 0 0 0 2 0 1 0 1 2 1 2 3 1 2 2 2 3 3 4 4 3 2 3 3
0 0 0 11 37 1 0 0 0 0 0 0 0 0 0 0 0 0 0 0 0 0 0 1 3 2 1 1 2 1 2 3 2 2 2 2 1 3 3 3 3 3 3 2
0 1 1 3 24 12 0 0 0 0 0 0 0 0 0 0 0 0 0 0 0 0 0 1 1 2 2 2 1 2 2 2 2 2 1 2 1 2 1 2 1 2 4 4
0 0 0 0 0 0 0 0 0 0 0 0 0 0 0 0 0 0 0 0 0 0 0 1 2 0 1 1 0 3 2 2 2 1 2 2 2 1 1 3 3 4 2 0
0 0 0 0 0 0 0 0 0 0 0 0 0 0 0 0 1 0 0 0 0 0 1 1 2 1 2 0 0 2 2 2 1 2 1 2 2 2 1 1 1 1 0 0
0 0 0 0 0 0 0 0 0 0 0 0 0 0 0 0 1 0 0 0 0 0 2 0 2 2 1 1 1 0 1 1 1 2 2 1 1 1 1 1 0 0 0 0
0 0 0 0 0 0 0 0 0 0 0 0 0 0 0 0 3 0 0 0 0 1 3 1 2 1 1 1 1 1 1 1 1 1 2 2 2 0 0 0 0 0 0 0
CIN
-0 -0 -0 -0 -0 -0 -0 -0 -0 -0 -0 -0 -0 -0 -0 -0 -0 -0 -0 -0 -0 -0 -0 -0 -0 -0 -0 -0 -0 -0 -0 -0 -0 -196 -92 -98 -86 -113 -123 -139 -161 -156 -165 -133
-0 -0 -0 -0 -0 -0 -0 -0 -0 -0 -0 -0 -0 -0 -0 -0 -0 -0 -0 -0 -0 -0 -0 -0 -0 -0 -0 -0 -0 -0 -0 -0 -0 -0 -256 -102 -87 -117 -117 -141 -148 -143 -138 -147
-0 -0 -0 -0 -0 -0 -0 -0 -0 -0 -0 -0 -0 -0 -0 -0 -0 -0 -0 -0 -0 -0 -0 -0 -0 -0 -0 -0 -0 -0 -0 -0 -0 -0 -0 -268 -110 -138 -127 -136 -98 -117 -130 -151
-0 -0 -0 -0 -0 -0 -0 -0 -0 -0 -0 -0 -0 -0 -0 -0 -0 -0 -0 -0 -0 -0 -0 -0 -0 -0 -0 -0 -0 -0 -0 -0 -0 -0 -0 -0 -282 -56 -120 -77 -95 -84 -94 -98
-0 -0 -0 -0 -0 -0 -0 -0 -0 -0 -0 -0 -0 -0 -0 -0 -0 -0 -0 -0 -0 -0 -0 -0 -0 -0 -0 -0 -0 -0 -0 -0 -0 -0 -0 -0 -0 -382 -107 -86 -89 -95 -84 -90
-0 -0 -0 -0 -0 -0 -0 -0 -0 -0 -0 -0 -0 -0 -0 -0 -0 -0 -0 -0 -0 -0 -0 -0 -0 -0 -0 -0 -0 -0 -0 -0 -0 -0 -0 -0 -0 -0 -453 -142 -170 -181 -108 -107
-0 -0 -0 -0 -0 -0 -0 -0 -0 -0 -0 -0 -0 -0 -0 -128 -0 -0 -0 -0 -0 -0 -0 -0 -0 -0 -0 -0 -0 -0 -0 -0 -0 -0 -0 -0 -0 -0 -75 -281 -0 -263 -148 -120
-0 -0 -0 -0 -0 -0 -0 -0 -0 -0 -0 -0 -0 -0 -0 -0 -0 -0 -0 -0 -0 -0 -0 -0 -0 -0 -0 -0 -0 -0 -0 -0 -0 -0 -0 -0 -0 -0 -0 -283 -246 -250 -177 -142
-0 -0 -0 -0 -0 -0 -0 -2 -0 -0 -0 -0 -0 -0 -0 -0 -0 -0 -0 -0 -0 -0 -0 -0 -0 -0 -0 -0 -0 -0 -0 -0 -0 -0 -0 -0 -0 -0 -0 -278 -161 -149 -125 -150
-0 -0 -0 -0 -0 -0 -0 -0 -0 -0 -0 -0 -0 -0 -0 -0 -0 -0 -0 -0 -0 -0 -0 -0 -0 -0 -0 -0 -0 -0 -1 -0 -0 -0 -0 -0 -0 -0 -0 -159 -143 -123 -103 -84
-0 -0 -0 -0 -0 -0 -0 -0 -0 -0 -0 -2 -2 -0 -0 -0 -0 -0 -0 -0 -0 -0 -0 -0 -0 -0 -0 -0 -0 -0 -0 -0 -0 -0 -0 -0 -0 -0 -0 -90 -138 -136 -85 -56
-0 -0 -0 -0 -0 -0 -0 -0 -0 -0 -0 -0 -0 -0 -0 -0 -0 -0 -0 -0 -0 -0 -0 -0 -0 -0 -0 -0 -0 -0 -0 -0 -0 -0 -0 -0 -0 -0 -0 -61 -83 -95 -56 -47
-0 -0 -0 -0 -0 -0 -0 -0 -0 -0 -0 -25 -1 -0 -0 -0 -0 -0 -0 -0 -0 -0 -0 -0 -0 -0 -0 -0 -0 -0 -0 -0 -0 -0 -0 -0 -0 -0 -184 -92 -32 -56 -77 -43
-0 -0 -0 -0 -0 -0 -0 -0 -0 -0 -56 -0 -0 -0 -0 -0 -0 -0 -0 -0 -0 -0 -0 -0 -0 -0 -0 -0 -0 -0 -0 -0 -0 -0 -41 -264 -168 -144 -128 -73 -46 -47 -56 -49
-0 -0 -0 -0 -0 -0 -0 -0 -0 -50 -38 -7 -0 -0 -0 -0 -0 -0 -0 -0 -0 -0 -0 -0 -0 -0 -0 -0 -0 -0 -0 -0 -0 -0 -0 -169 -84 -68 -74 -56 -87 -95 -87 -0
-0 -0 -0 -0 -0 -0 -0 -0 -36 -36 -0 -19 -0 -0 -0 -0 -0 -0 -0 -0 -0 -0 -0 -0 -0 -0 -1 -0 -0 -0 -0 -0 -0 -0 -0 -108 -102 -90 -105 -123 -164 -0 -0 -0
-0 -0 -0 -0 -0 -0 -13 -1 -0 -0 -10 -0 -0 -0 -0 -0 -0 -0 -0 -0 -0 -0 -0 -0 -0 -0 -0 -0 -0 -0 -0 -0 -0 -0 -0 -46 -0 -206 -205 -245 -0 -0 -0 -0
-0 -0 -0 -0 -0 -0 -0 -0 -3 -21 -0 -0 -0 -0 -0 -0 -0 -0 -0 -34 -0 -0 -0 -0 -0 -0 -0 -0 -0 -0 -0 -0 -0 -0 -0 -0 -0 -0 -0 -0 -0 -0 -0 -0
-0 -0 -0 -8 -3 -0 -0 -23 -0 -0 -0 -0 -0 -0 -0 -0 -0 -0 -0 -9 -0 -0 -0 -0 -0 -0 -0 -0 -0 -0 -0 -0 -0 -0 -0 -0 -0 -0 -0 -0 -0 -0 -0 -0
-0 -0 -0 -3 -5 -1 -0 -0 -0 -0 -0 -0 -0 -0 -0 -0 -0 -0 -0 -0 -0 -0 -0 -0 -0 -0 -0 -0 -0 -0 -0 -0 -0 -0 -0 -0 -0 -0 -0 -0 -0 -0 -0 -0
-0 -0 -21 -32 -6 -9 -0 -0 -0 -0 -0 -0 -0 -0 -0 -0 -0 -0 -0 -0 -0 -0 -0 -0 -0 -0 -0 -0 -0 -0 -0 -0 -0 -0 -0 -0 -0 -0 -0 -0 -0 -0 -0 -0
-0 -8 -5 -10 -7 -9 -0 -0 -0 -0 -0 -0 -0 -0 -0 -0 -0 -0 -0 -0 -0 -0 -0 -0 -0 -0 -0 -0 -0 -0 -0 -0 -0 -0 -0 -0 -0 -0 -0 -0 -0 -0 -0 -0
-0 -0 -0 -0 -1 -0 -0 -0 -0 -0 -0 -0 -0 -0 -0 -0 -0 -3 -0 -0 -0 -0 -0 -0 -0 -0 -0 -0 -0 -0 -0 -0 -0 -0 -0 -0 -0 -0 -0 -0 -0 -0 -0 -0
-0 -0 -0 -0 -0 -0 -0 -0 -0 -0 -0 -0 -0 -0 -0 -0 -13 -0 -0 -0 -0 -0 -0 -0 -0 -0 -0 -0 -0 -0 -0 -0 -0 -0 -0 -0 -0 -0 -0 -0 -0 -0 -0 -0
-0 -0 -0 -0 -0 -0 -0 -0 -0 -0 -0 -0 -0 -0 -0 -0 -9 -0 -0 -0 -0 -0 -0 -0 -0 -0 -0 -0 -0 -0 -0 -0 -0 -0 -0 -0 -0 -0 -0 -0 -0 -0 -0 -0
-0 -0 -0 -0 -0 -0 -0 -0 -0 -0 -0 -0 -0 -0 -0 -0 -42 -0 -0 -0 -0 -0 -0 -0 -0 -0 -0 -0 -0 -0 -0 -0 -0 -0 -0 -0 -0 -0 -0 -0 -0 -0 -0 -0
Wind_Speed
22 20 21 27 17 21 22 24 27 26 26 31 30 26 22 21 22 25 28 30 30 31 31 33 33 34 37 37 38 38 38 37 33 28 24 21 23 24 29 37 38 35 35 32
23 22 21 28 23 20 21 23 29 29 30 30 31 27 20 23 23 25 28 30 33 36 37 38 38 40 40 41 42 42 40 38 37 35 32 29 23 24 23 30 36 38 37 36
23 25 26 25 22 20 22 26 29 30 31 30 27 24 24 22 22 25 27 30 33 36 40 43 45 46 47 46 46 45 45 44 40 38 37 33 30 29 27 26 34 36 37 39
23 28 28 22 18 20 24 26 28 31 34 33 26 33 23 21 24 28 32 34 37 39 41 43 46 48 48 49 46 45 45 48 46 41 38 34 31 29 28 27 25 35 38 40
28 25 26 21 22 20 21 26 27 29 26 25 22 24 22 22 27 32 33 36 38 40 43 45 46 47 48 45 45 44 43 43 43 42 42 38 37 34 34 29 27 28 38 40
23 18 21 23 21 23 24 24 26 23 20 22 21 25 23 21 22 30 33 36 40 43 45 46 47 46 44 42 41 41 40 41 37 38 41 42 38 39 35 33 30 28 36 41
25 21 20 28 26 24 28 27 28 23 24 21 20 26 18 17 21 28 35 40 43 45 46 47 48 46 43 43 43 42 41 43 41 39 38 40 40 41 38 37 34 33 30 38
27 21 26 28 26 19 23 20 21 23 21 24 23 17 22 14 22 29 32 36 43 45 46 47 46 44 43 44 44 44 45 45 43 43 42 41 43 45 41 40 38 34 33 32
24 19 21 26 22 19 19 22 18 17 20 23 19 19 18 18 24 33 40 42 44 46 47 46 36 41 42 43 43 44 46 47 47 45 42 42 41 44 44 41 39 37 34 31
20 20 19 26 19 23 20 17 20 21 23 26 20 20 14 23 34 39 41 43 44 46 48 45 31 40 41 39 41 42 44 46 48 46 42 40 41 42 43 40 38 37 33 31
19 18 18 22 18 20 19 25 21 19 19 21 25 18 19 27 37 40 42 44 46 48 48 40 37 38 41 43 42 41 44 45 48 44 42 42 42 36 38 39 37 36 35 31
17 18 19 17 10 10 15 20 21 21 21 16 21 16 14 22 31 40 43 45 45 45 42 35 33 34 40 42 38 43 43 43 45 43 42 41 40 34 35 36 35 31 32 31
16 19 22 22 20 15 15 15 22 18 23 16 21 19 19 17 22 37 45 46 45 46 48 41 36 35 36 40 42 44 45 43 42 39 39 41 39 31 34 32 31 29 27 26
16 17 16 16 14 16 11 6 12 15 14 16 11 11 12 13 15 14 18 29 42 43 40 37 40 41 40 40 43 39 45 27 36 38 36 35 32 27 27 25 27 28 23 21
17 18 17 13 8 11 8 6 8 13 10 13 24 25 16 15 15 15 21 21 40 40 42 37 29 28 32 45 48 20 17 16 33 37 33 31 28 23 19 20 21 21 19 17
17 19 21 21 21 21 17 19 19 19 14 15 21 14 21 22 24 25 18 18 15 42 44 20 22 30 34 48 23 25 18 16 12 8 27 25 25 13 13 15 14 17 16 14
16 17 19 18 25 26 14 17 16 14 12 15 18 22 27 32 37 29 18 20 20 22 47 29 20 23 22 21 18 18 18 14 13 21 8 12 14 3 6 11 11 15 15 13
12 12 15 21 26 18 18 16 14 14 13 14 18 13 23 28 33 20 22 23 24 29 32 25 18 18 38 28 17 19 17 17 19 20 12 6 4 4 3 7 10 13 13 13
3 9 16 19 19 19 20 15 18 19 22 16 17 23 29 30 28 31 29 28 31 31 30 23 20 18 17 18 21 21 19 20 23 17 10 13 4 3 6 8 10 10 12 13
9 10 12 18 21 21 20 21 20 21 15 17 21 25 27 33 42 37 34 32 34 32 32 31 21 26 19 21 17 20 17 23 14 12 8 11 1 8 9 11 11 12 15 18
16 15 10 13 19 22 19 29 23 21 16 21 21 23 24 29 27 19 29 31 32 33 34 32 36 37 19 26 28 28 28 24 12 5 7 3 5 8 11 14 16 16 19 19
20 19 19 20 19 22 26 26 21 19 20 19 18 19 20 22 27 26 26 31 37 37 37 34 39 44 44 30 33 31 27 22 12 16 3 13 13 11 15 18 17 18 19 18
24 21 25 21 22 24 29 20 14 13 15 19 16 16 18 20 23 24 27 32 38 36 36 34 38 44 42 34 30 28 18 11 7 4 4 14 14 17 15 22 19 20 21 22
21 21 26 29 25 29 36 29 25 27 23 19 16 17 20 17 21 25 28 31 37 36 36 35 40 44 38 27 22 22 12 7 5 4 6 9 9 13 14 20 17 23 21 22
22 26 27 33 35 33 26 33 32 29 26 27 30 28 24 18 16 24 28 31 34 35 35 35 40 41 32 20 20 9 3 4 2 7 13 12 14 18 19 17 17 19 17 17
24 27 26 28 22 25 32 32 29 25 27 29 31 35 32 20 20 23 26 29 32 34 33 34 39 37 26 16 14 13 3 4 9 12 12 17 18 18 18 20 21 18 18 17
Wind_Direction
345 346 339 327 328 328 323 321 320 323 322 318 314 320 324 329 331 330 328 326 326 322 321 318 315 314 309 309 307 306 302 298 295 291 284 279 278 279 276 265 260 261 261 264
353 351 344 333 330 324 322 320 320 319 317 319 313 316 321 326 328 331 329 329 326 319 315 313 311 311 309 306 306 302 301 299 295 292 286 284 274 278 272 272 263 257 258 261
355 346 337 337 336 334 326 323 322 321 323 321 318 313 310 323 333 333 333 330 326 322 313 309 307 307 306 304 304 303 296 293 294 293 290 284 284 280 278 275 267 259 256 257
354 346 337 336 337 337 329 333 328 322 320 315 324 308 314 324 324 329 329 326 322 319 316 316 312 308 308 303 305 305 302 292 287 290 289 287 277 273 270 271 269 262 257 255
350 355 359 359 346 345 337 337 335 331 329 330 334 323 327 326 320 320 324 327 324 321 320 317 317 314 311 311 309 307 308 306 295 288 284 285 281 276 275 268 267 265 260 255
0 9 7 360 355 351 346 344 341 343 343 331 342 334 330 334 335 328 330 327 326 323 322 320 318 316 317 319 317 315 314 310 307 295 284 279 279 276 271 267 263 266 264 257
3 6 9 355 344 345 341 340 334 337 334 337 347 334 342 351 346 337 330 324 327 327 322 322 319 315 320 321 320 318 316 310 307 300 290 279 275 273 269 264 262 263 265 259
0 3 3 356 356 359 350 359 352 338 343 338 345 350 346 4 348 343 344 340 326 323 321 323 327 321 319 320 320 319 316 312 310 302 292 286 276 269 266 263 260 261 260 261
7 12 9 4 7 13 5 355 10 0 352 347 349 354 356 357 350 338 324 324 322 324 326 333 346 328 321 326 328 323 318 312 310 306 295 287 279 272 263 258 256 257 259 261
21 13 17 5 20 20 22 26 1 351 349 345 353 354 5 353 338 328 316 323 318 323 327 344 354 337 332 337 332 328 323 318 310 301 299 290 285 274 260 254 251 252 257 260
23 19 16 12 30 26 20 359 1 2 356 352 347 5 3 349 340 327 320 325 325 326 335 350 350 342 339 334 334 333 323 325 312 303 297 290 283 273 257 251 247 249 254 258
23 17 13 17 39 55 34 4 5 358 353 356 345 359 25 6 356 329 320 322 327 334 350 355 356 349 342 337 342 334 332 328 311 300 293 292 288 272 254 248 244 246 252 257
15 10 4 7 12 21 19 10 353 2 347 359 348 3 15 3 3 343 322 327 322 327 335 352 356 355 348 344 340 337 332 333 319 291 291 290 284 267 247 244 244 243 249 252
15 10 11 7 8 9 15 19 13 5 10 9 9 353 309 346 334 336 347 356 314 319 348 357 355 351 350 349 343 345 326 348 335 291 281 287 283 255 241 240 238 240 246 241
9 1 3 7 9 6 3 355 21 17 22 11 352 351 291 311 331 351 357 360 314 314 316 353 1 360 357 347 330 321 307 319 335 283 270 271 270 249 236 232 235 239 237 229
1 356 352 353 359 359 8 14 10 3 14 8 354 353 4 2 5 3 351 356 334 317 320 320 355 0 360 331 312 300 310 337 324 273 243 237 242 249 235 235 237 235 223 214
339 343 350 349 346 344 1 6 9 9 4 2 357 356 358 356 352 1 357 2 0 360 330 311 348 358 359 325 343 310 312 315 311 294 129 293 274 272 238 230 219 214 204 195
335 342 343 339 338 351 357 6 6 3 360 356 354 360 -0 357 355 2 6 8 6 7 4 324 346 340 2 7 334 308 310 303 301 312 293 317 319 257 188 190 195 195 195 187
291 335 338 339 342 343 349 1 358 358 350 2 2 356 354 356 1 4 7 8 6 7 6 2 359 359 333 356 311 309 307 306 321 325 270 224 239 91 146 156 161 165 164 168
349 329 325 332 333 336 349 351 358 355 355 6 355 356 358 353 338 355 358 2 4 7 8 7 3 7 319 312 308 305 308 316 307 300 274 213 345 98 127 135 149 153 153 154
338 329 312 316 325 327 343 330 346 351 358 358 359 357 358 355 356 355 0 2 5 7 7 8 4 4 321 307 307 314 324 332 317 295 342 330 64 103 137 133 148 140 144 128
328 324 319 319 320 321 332 338 345 354 357 1 0 358 357 358 356 1 3 1 359 4 7 10 3 352 343 313 334 340 342 352 337 13 213 170 159 145 128 134 144 126 132 116
316 315 308 310 313 320 325 342 354 4 359 357 359 359 359 360 360 2 2 359 357 6 9 11 7 353 346 331 349 351 326 314 322 3 100 154 139 150 141 104 120 132 109 116
318 315 305 305 309 308 300 316 336 337 343 351 357 357 357 356 359 2 2 360 357 5 9 11 5 352 340 334 332 355 327 314 329 204 176 159 95 141 124 93 132 104 109 111
311 309 306 302 301 305 311 306 314 325 340 344 346 351 356 358 359 2 1 1 2 6 11 13 6 355 342 328 348 314 217 181 115 150 156 151 137 127 106 118 131 139 145 144
305 303 303 304 312 316 306 305 315 330 335 339 342 340 346 358 357 0 0 4 5 6 12 16 8 355 338 327 337 336 279 164 145 143 144 152 147 139 129 118 102 112 98 109